Flag for Canada Weather past 2 weeks in Kugluktuk, Nunavut Territory, Canada

Now
12 °F

Light snow. Mostly cloudy.


Feels Like: -5 °F
Forecast: -15 / 22 °F
Wind: 17 mph from Southwest

Location: Coppermine

Current Time: Feb 27, 2015 at 6:15:46 AM

Latest Report: Feb 27, 2015 at 5:00 AM


Visibility: 8 mi

Pressure: 29.82 "Hg

Humidity: 85%

Dew point: 9 °F

Location of KugluktukLocation

Historic Weather in Kugluktuk — Graph

°F

Kugluktuk temperature yesterday

Maximum temperature yesterday: 14 °F (at 11:00 AM)
Minimum temperature yesterday: 3 °F (at 6:00 AM)
Average temperature yesterday: 10 °F

Past Weeks' High & Low Weather Summary

 TemperatureHumidityPressure
High14 °F (Feb 26, 11:00 AM)85% (Feb 16, 3:00 AM)30.80 "Hg (Feb 16, 3:00 AM)
Low-40 °F (Feb 12, 10:00 PM)61% (Feb 13, 2:00 PM)29.82 "Hg (Feb 27, 4:56 AM)
Average-12 °F75%30.37 "Hg
* Reported Feb 12 5:00 AM — Feb 27 5:00 AM, Kugluktuk, Weather by CustomWeather, © 2015

Note: Actual official high and low records may vary slightly from our data, if they occured in-between our weather recording intervals... More about our weather records

Advertising

Kugluktuk weather history for previous 24 hours

 ConditionsComfort  
Time TempWeatherWind HumidityBarometerVisibility
5:00 AM
Fri, Feb 27
12 °FLight snow. Mostly cloudy.17 mph85%29.82 "Hg8 mi
4:56 AM12 °FLight snow. Mostly cloudy.18 mph85%29.82 "Hg8 mi
4:00 AM10 °FLight snow. Overcast.24 mph79%29.85 "Hg2 mi
3:46 AM10 °FLight snow. Overcast.25 mph79%29.85 "Hg2 mi
3:00 AM7 °FPassing clouds.24 mph78%29.87 "Hg10 mi
2:00 AM9 °FPassing clouds.24 mph78%29.89 "Hg8 mi
1:00 AM9 °FPassing clouds.21 mph78%29.91 "Hg5 mi
12:00 AM10 °FPassing clouds.31 mph85%29.93 "Hg5 mi
11:00 PM
Thu, Feb 26
10 °FPassing clouds.24 mph85%29.95 "Hg6 mi
10:00 PM12 °FOvercast.29 mph79%29.98 "Hg3 mi
9:00 PM12 °FPassing clouds.31 mph79%30.01 "Hg4 mi
8:00 PM14 °FLow level haze.25 mph79%30.06 "Hg15 mi
7:00 PM10 °FPassing clouds.18 mph72%30.11 "Hg15 mi
6:00 PM10 °FOvercast.23 mph79%30.15 "Hg15 mi
5:00 PM10 °FPartly sunny.23 mph79%30.18 "Hg15 mi
4:00 PM10 °FOvercast.20 mph85%30.19 "Hg15 mi
3:00 PM14 °FPartly sunny.23 mph79%30.20 "Hg15 mi
2:00 PM14 °FMostly cloudy.22 mph79%30.22 "Hg15 mi
1:00 PM14 °FPartly sunny.24 mph79%30.22 "Hg15 mi
12:00 PM14 °FMostly cloudy.25 mph79%30.24 "Hg15 mi
11:00 AM14 °FMostly cloudy.26 mph79%30.23 "Hg15 mi
10:00 AM12 °FPartly sunny.22 mph79%30.24 "Hg15 mi
9:00 AM9 °FOvercast.18 mph78%30.24 "Hg15 mi
8:00 AM7 °FPassing clouds.23 mph78%30.24 "Hg12 mi
7:00 AM5 °FPassing clouds.20 mph78%30.24 "Hg10 mi
6:00 AM3 °FLow level haze.23 mph78%30.24 "Hg8 mi
Weather by CustomWeather, © 2015

See weather overviewHow to use our weather pages